Regional Weather Roundup
Issued by NWS

Home | Current Version | Previous Version | Text Only | Print | Product List | Glossary On
Versions: 1 2 3 4 5 6 7 8 9 10 11 12 13 14 15 16 17 18 19 20 21 22 23 24 25 26 27 28 29 30 31 32 33 34 35 36 37 38 39 40 41 42 43 44 45 46 47 48 49 50
000
ASUS43 KTOP 042108
RWRKS

WEATHER ROUNDUP FOR KANSAS
NATIONAL WEATHER SERVICE GOODLAND KS
400 PM CDT THU JUN 04 2020

NOTE:  "FAIR" INDICATES FEW OR NO CLOUDS BELOW 12,000 FEET WITH NO
SIGNIFICANT WEATHER AND/OR OBSTRUCTIONS TO VISIBILITY.

KSZ001>006-013>018-027>032-041>047-042200-
NORTHWEST KANSAS

CITY           SKY/WX    TMP DP  RH WIND       PRES   REMARKS
GOODLAND       SUNNY     95  40  14 VRB3      29.82F
HAYS           SUNNY     97  59  28 S13G18    29.76F HX  96
HILL CITY      SUNNY     95  60  31 S5        29.76F HX  95
RUSSELL        SUNNY     95  60  31 S10       29.75F HX  95
$$

KSZ061>065-074>080-084>089-042200-
SOUTHWEST KANSAS

CITY           SKY/WX    TMP DP  RH WIND       PRES   REMARKS
DODGE CITY     PTSUNNY   96  49  20 S12       29.80F
ELKHART        SUNNY    103  48  15 N10G16    29.81F HX 100
GARDEN CITY    MOSUNNY   94  46  19 VRB6G20   29.80F
GREAT BEND     SUNNY     97  60  29 S9G20     29.77F HX  97
LIBERAL        PTSUNNY   98  58  26 VRB3G17   29.79F HX  97
PRATT          MOSUNNY  N/A N/A N/A S12       29.79F
$$

KSZ066>073-081>083-090>101-042200-
SOUTHEAST KANSAS

CITY           SKY/WX    TMP DP  RH WIND       PRES   REMARKS
CHANUTE        SUNNY     89  73  59 S8        29.79F HX  97
COFFEYVILLE    SUNNY     89  74  60 SW10      29.78F HX  98
HUTCHINSON     SUNNY     96  62  32 S7        29.76F HX  97
MEDICINE LODGE   N/A     99  62  29 VRB7G16   29.76F HX 100
NEWTON           N/A     94  70  45 S13       29.78F HX 100
PARSONS        SUNNY     88  74  63 S9        29.80F HX  96
WICHITA INTL   MOSUNNY   94  70  45 SE7       29.76F HX 100
WICHITA MCCONL SUNNY     93  65  39 S7        29.78F HX  96
WINFIELD       SUNNY     93  75  55 SE9       29.78F HX 104
$$

KSZ007>012-019>026-033>040-048>060-102>105-042200-
NORTHEAST KANSAS

CITY           SKY/WX    TMP DP  RH WIND       PRES   REMARKS
CONCORDIA      SUNNY     93  70  46 S12       29.75F HX  99
EMPORIA        SUNNY     88  72  58 S10       29.79F
LAWRENCE       SUNNY     88  71  57 S9        29.78S
MANHATTAN      SUNNY     91  72  53 S8        29.75F HX  98
MARYSVILLE     SUNNY     88  73  62 S12       29.76F HX  96
OLATHE IND     MOSUNNY   87  70  56 S8        29.80F
OLATHE EXE     MOSUNNY   85  73  67 SE6       29.80S
SALINA         SUNNY     95  69  42 S8        29.75F HX 100
TOPEKA BILLARD SUNNY     88  71  57 S9G18     29.77F
TOPEKA FORBES  SUNNY     87  72  60 S9        29.78F
$$




USA.gov is the U.S. government's official web portal to all federal, state and local government web resources and services.